Date String (YYYY-MM-DD hh:mm:ss) UTC,Instrument flags,absolute air pressure of the measurement (hPa),sample flow rate (lpm),inlet stack bypass flow (lpm),air temperature of the measurement (°C),ambient temperature measured by the external sensor (°C),aerosol sample conditioner tube jacket temperature (°C),OPC LED temperature (°C),internal box temperature (°C),relative humidity of the measurement (%),span deviation,mass concentration of particles derived from Lorenz-Mie calculation of OPC scattering (μg/m³),mass concentration of particles derived from Lorenz-Mie calculation of OPC scattering (μg/m³),mass concentration of particles derived from Lorenz-Mie calculation of OPC scattering (μg/m³)
DateTimeUTC,F1_M11,P_M11,Q1_M11,Q2_M11,T1_M11,T2_M11,T3_M11,T4_M11,T5_M11,U1_M11,ZSPAN_M11,X0_M11,X2_M11,X1_M11
2024-02-07 15:00:00,SystemResetWarning,0812.8,5.00,000.00,018.4,017.7,000.0,026.8,020.0,19.7,0000.0,0004.90,0003.17,0002.96
2024-02-07 15:01:00,SystemResetWarning,0812.8,5.00,000.00,018.4,017.7,000.0,026.9,020.0,19.6,0000.0,0005.14,0003.31,0003.15
2024-02-07 15:02:00,SystemResetWarning,0812.8,4.99,000.00,018.4,017.7,000.0,026.9,020.0,19.5,0000.0,0006.24,0003.46,0003.28
2024-02-07 15:03:00,SystemResetWarning,0812.8,4.99,000.00,018.4,017.8,000.0,026.8,020.0,19.2,0000.0,0007.29,0003.63,0003.41
2024-02-07 15:04:00,SystemResetWarning,0812.8,4.99,000.00,018.4,017.8,000.0,026.8,020.0,18.9,0000.0,0007.53,0003.85,0003.58
2024-02-07 15:05:00,SystemResetWarning,0812.7,5.00,000.00,018.4,017.8,000.0,026.8,020.0,18.6,0000.0,0007.39,0004.00,0003.71
2024-02-07 15:06:00,SystemResetWarning,0812.7,5.00,000.00,018.4,017.8,000.0,026.8,020.0,18.5,0000.0,0007.52,0004.06,0003.75
2024-02-07 15:07:00,SystemResetWarning,0812.6,5.00,000.00,018.4,017.8,000.0,026.8,020.0,18.5,0000.0,0007.54,0004.07,0003.74
2024-02-07 15:08:00,SystemResetWarning,0812.6,5.00,000.00,018.4,017.9,000.0,026.8,020.0,18.4,0000.0,0007.47,0003.98,0003.66
2024-02-07 15:09:00,SystemResetWarning,0812.6,5.00,000.00,018.4,017.9,000.0,026.8,020.0,18.4,0000.0,0007.41,0003.87,0003.57
2024-02-07 15:10:00,SystemResetWarning,0812.6,5.00,000.00,018.4,017.9,000.0,026.8,020.0,18.3,0000.0,0007.35,0003.75,0003.44
2024-02-07 15:11:00,SystemResetWarning,0812.6,4.99,000.00,018.4,017.9,000.0,026.8,020.0,18.3,0000.0,0007.27,0003.59,0003.30
2024-02-07 15:12:00,SystemResetWarning,0812.6,4.99,000.00,018.4,017.9,000.0,026.8,020.1,18.3,0000.0,0007.08,0003.46,0003.17
2024-02-07 15:13:00,SystemResetWarning,0812.5,5.00,000.00,018.4,017.9,000.0,026.8,020.1,18.2,0000.0,0006.14,0003.30,0003.00
2024-02-07 15:14:00,SystemResetWarning,0812.5,5.01,000.00,018.4,017.9,000.0,026.8,020.1,18.1,0000.0,0004.98,0003.13,0002.75
2024-02-07 15:15:00,SystemResetWarning,0812.5,5.00,000.00,018.4,018.0,000.0,026.8,020.1,18.9,0000.0,0004.31,0002.76,0002.40
2024-02-07 15:16:00,SystemResetWarning,0812.5,5.01,000.00,018.5,018.0,000.0,026.8,020.1,19.2,0000.0,0003.65,0002.42,0002.12
2024-02-07 15:17:00,SystemResetWarning,0812.5,5.00,000.00,018.5,018.0,000.0,026.8,020.1,19.3,0000.0,0003.30,0002.17,0001.91
2024-02-07 15:18:00,SystemResetWarning,0812.5,5.00,000.00,018.5,018.0,000.0,026.8,020.1,19.4,0000.0,0003.08,0001.99,0001.75
2024-02-07 15:19:00,SystemResetWarning,0812.4,5.00,000.00,018.5,018.0,000.0,026.8,020.1,19.4,0000.0,0003.04,0001.92,0001.69
2024-02-07 15:20:00,SystemResetWarning,0812.4,4.99,000.00,018.5,018.0,000.0,026.8,020.2,19.1,0000.0,0003.01,0001.89,0001.67
2024-02-07 15:21:00,SystemResetWarning,0812.4,4.98,000.00,018.5,018.0,000.0,026.8,020.1,19.3,0000.0,0002.98,0001.99,0001.76
2024-02-07 15:22:00,SystemResetWarning,0812.4,5.00,000.00,018.5,018.0,000.0,026.8,020.2,19.9,0000.0,0003.57,0002.12,0001.89
2024-02-07 15:23:00,SystemResetWarning,0812.4,5.01,000.00,018.5,018.0,000.0,026.8,020.2,20.0,0000.0,0004.30,0002.32,0002.08
2024-02-07 15:24:00,SystemResetWarning,0812.4,5.01,000.00,018.5,018.0,000.0,026.8,020.2,19.8,0000.0,0004.63,0002.57,0002.30
2024-02-07 15:25:00,SystemResetWarning,0812.4,5.00,000.00,018.5,018.1,000.0,026.8,020.2,19.7,0000.0,0005.13,0002.91,0002.61
2024-02-07 15:26:00,SystemResetWarning,0812.5,5.00,000.00,018.5,018.0,000.0,026.8,020.2,19.9,0000.0,0005.55,0003.18,0002.90
2024-02-07 15:27:00,SystemResetWarning,0812.5,5.00,000.00,018.5,018.1,000.0,026.8,020.2,19.8,0000.0,0005.93,0003.37,0003.16
2024-02-07 15:28:00,SystemResetWarning,0812.5,5.00,000.00,018.5,018.1,000.0,026.8,020.2,19.8,0000.0,0006.33,0003.56,0003.33
2024-02-07 15:29:00,SystemResetWarning,0812.4,5.00,000.00,018.6,018.1,000.0,026.9,020.2,19.7,0000.0,0006.82,0003.75,0003.50
2024-02-07 15:30:00,SystemResetWarning,0812.4,4.99,000.00,018.6,018.1,000.0,026.9,020.2,20.1,0000.0,0007.14,0003.93,0003.66
2024-02-07 15:31:00,SystemResetWarning,0812.4,5.01,000.00,018.6,018.1,000.0,026.9,020.2,19.7,0000.0,0007.35,0004.10,0003.80
2024-02-07 15:32:00,SystemResetWarning,0812.4,5.00,000.00,018.6,018.1,000.0,026.9,020.2,19.6,0000.0,0007.45,0004.20,0003.92
2024-02-07 15:33:00,SystemResetWarning,0812.5,5.01,000.00,018.6,018.1,000.0,026.9,020.2,19.7,0000.0,0007.47,0004.28,0004.01
2024-02-07 15:34:00,SystemResetWarning,0812.5,5.00,000.00,018.6,018.1,000.0,026.9,020.2,19.9,0000.0,0007.55,0004.33,0004.06
2024-02-07 15:35:00,SystemResetWarning,0812.5,5.00,000.00,018.6,018.1,000.0,026.9,020.2,19.8,0000.0,0007.70,0004.36,0004.08
2024-02-07 15:36:00,SystemResetWarning,0812.4,4.99,000.00,018.6,018.1,000.0,026.9,020.3,19.5,0000.0,0007.56,0004.34,0004.08
2024-02-07 15:37:00,SystemResetWarning,0812.3,5.01,000.00,018.6,018.1,000.0,026.9,020.3,19.5,0000.0,0007.59,0004.36,0004.09
2024-02-07 15:38:00,SystemResetWarning,0812.3,5.01,000.00,018.6,018.1,000.0,026.9,020.3,19.7,0000.0,0007.62,0004.36,0004.09
2024-02-07 15:39:00,SystemResetWarning,0812.3,5.00,000.00,018.6,018.1,000.0,026.9,020.3,20.1,0000.0,0007.59,0004.34,0004.08
2024-02-07 15:40:00,SystemResetWarning,0812.3,4.99,000.00,018.6,018.1,000.0,026.9,020.3,20.1,0000.0,0007.60,0004.35,0004.08
2024-02-07 15:41:00,SystemResetWarning,0812.4,4.99,000.00,018.6,018.1,000.0,026.9,020.3,20.0,0000.0,0008.60,0004.35,0004.09
2024-02-07 15:42:00,SystemResetWarning,0812.4,5.00,000.00,018.6,018.1,000.0,026.9,020.3,20.1,0000.0,0008.62,0004.37,0004.11
2024-02-07 15:43:00,SystemResetWarning,0812.4,5.01,000.00,018.6,018.1,000.0,026.9,020.3,20.0,0000.0,0008.74,0004.42,0004.12
2024-02-07 15:44:00,SystemResetWarning,0812.4,5.01,000.00,018.6,018.1,000.0,026.9,020.3,20.0,0000.0,0008.70,0004.44,0004.11
2024-02-07 15:45:00,SystemResetWarning,0812.4,5.01,000.00,018.6,018.1,000.0,026.9,020.3,20.1,0000.0,0008.88,0004.46,0004.11
2024-02-07 15:46:00,SystemResetWarning,0812.4,5.00,000.00,018.6,018.1,000.0,026.9,020.3,20.1,0000.0,0009.27,0004.48,0004.13
2024-02-07 15:47:00,SystemResetWarning,0812.3,5.00,000.00,018.6,018.1,000.0,027.0,020.3,20.1,0000.0,0009.89,0004.51,0004.12
2024-02-07 15:48:00,SystemResetWarning,0812.3,5.00,000.00,018.7,018.1,000.0,027.0,020.3,20.1,0000.0,0010.26,0004.47,0004.10
2024-02-07 15:49:00,SystemResetWarning,0812.4,4.99,000.00,018.7,018.1,000.0,027.0,020.3,20.2,0000.0,0010.18,0004.44,0004.09
2024-02-07 15:50:00,SystemResetWarning,0812.4,4.99,000.00,018.7,018.1,000.0,027.0,020.3,20.1,0000.0,0010.20,0004.43,0004.08
2024-02-07 15:51:00,SystemResetWarning,0812.4,5.00,000.00,018.7,018.1,000.0,027.0,020.3,20.2,0000.0,0010.47,0004.43,0004.09
2024-02-07 15:52:00,SystemResetWarning,0812.3,5.01,000.00,018.7,018.1,000.0,027.0,020.3,20.1,0000.0,0009.84,0004.45,0004.10
2024-02-07 15:53:00,SystemResetWarning,0812.3,5.01,000.00,018.7,018.1,000.0,027.0,020.3,20.2,0000.0,0010.20,0004.46,0004.11
2024-02-07 15:54:00,SystemResetWarning,0812.3,4.99,000.00,018.7,018.1,000.0,027.0,020.3,19.7,0000.0,0010.50,0004.48,0004.14
2024-02-07 15:55:00,SystemResetWarning,0812.3,4.99,000.00,018.7,018.1,000.0,027.0,020.3,19.7,0000.0,0010.53,0004.55,0004.24
2024-02-07 15:56:00,SystemResetWarning,0812.3,5.00,000.00,018.7,018.1,000.0,027.0,020.3,19.9,0000.0,0010.53,0004.72,0004.40
2024-02-07 15:57:00,SystemResetWarning,0812.3,4.99,000.00,018.7,018.1,000.0,027.0,020.3,19.8,0000.0,0010.25,0004.91,0004.59
2024-02-07 15:58:00,SystemResetWarning,0812.4,4.99,000.00,018.7,018.1,000.0,027.0,020.3,19.7,0000.0,0009.93,0005.10,0004.75
2024-02-07 15:59:00,SystemResetWarning,0812.3,5.00,000.00,018.7,018.0,000.0,027.0,020.3,20.0,0000.0,0009.76,0005.31,0004.95
